Weather Roundup
Issued by NWS

Home | Current Version | Previous Version | Text Only | Print | Product List | Glossary On
Versions: 1 2 3 4 5 6 7 8 9 10 11 12 13 14 15 16 17 18 19 20 21 22 23 24 25 26 27 28 29 30 31 32 33 34 35 36 37 38 39 40 41 42 43 44 45 46 47 48 49 50
000
NZUS93 KARX 291310
HRRWXR

CURRENT HOURLY OBSERVATIONS ACROSS
MUCH OF THE UPPER MISSISSIPPI VALLEY
NATIONAL WEATHER SERVICE LA CROSSE WI
800 AM CDT SAT AUG 29 2015


...SOUTHEAST MINNESOTA...


CITY           SKY/WX    TMP DP  RH WIND       PRES   REMARKS
ROCHESTER      FOG       58  58 100 NE8       30.07R VSB 1/4
ROCHESTER/MAYO CLOUDY    58  58 100 NE3       30.08R
WINONA         CLOUDY    61  57  88 NE3       30.06R
AUSTIN         FOG       61  59  94 NE6       30.06R VSB 1/2
ALBERT LEA     FOG       59  57  94 NE3       30.06R VSB 1
DODGE CENTER   FOG       57  55  94 NE5       30.07R VSB 1/4
PRESTON        FOG       58  57  96 NE5       30.06R VSB 1/4
OWATONNA       CLOUDY    57  55  94 E5        30.07R FOG
FARIBAULT      CLOUDY    57  55  94 CALM      30.07R FOG
$$

...ELSEWHERE IN MINNESOTA...


CITY           SKY/WX    TMP DP  RH WIND       PRES   REMARKS
MINNEAPOLIS    CLOUDY    57  55  93 SE6       30.08R FOG
INTNL FALLS    CLOUDY    65  62  90 SW6       29.98R
DULUTH         CLOUDY    59  56  89 W9        30.04R
RED WING       CLOUDY    57  55  94 E5        30.07R FOG
REDWOOD FALLS  FOG       52  51  97 S3        30.06R VSB<1/4
MANKATO        CLOUDY    57  54  88 CALM      30.07R VSB<1/4
WORTHINGTON    CLOUDY    54  50  87 CALM      30.08R VSB 1/4
FAIRMONT       CLOUDY    55  52  88 CALM      30.06R VSB<1/4
$$

...SOUTHWEST WISCONSIN...


CITY           SKY/WX    TMP DP  RH WIND       PRES   REMARKS
LA CROSSE      CLOUDY    62  58  86 CALM      30.04S
PRAIRIE DU CHI CLOUDY    63  61  95 NW5       30.00R
BOSCOBEL       CLOUDY    63  61  93 CALM      30.01R FOG
LONE ROCK      CLOUDY    64  62  93 NE5       30.01R FOG
PLATTEVILLE    CLOUDY    64  64 100 CALM      30.00R
FORT MC COY    CLOUDY    60  58  93 NE5       30.06R
CAMP DOUGLAS   CLOUDY    59  59 100 NE5       30.05R
VIROQUA        CLOUDY    59  59 100 NE6       30.04S
WIS DELLS      MIX PCPN  60  58  94 E7        30.03S
$$

...ELSEWHERE IN WISCONSIN...


CITY           SKY/WX    TMP DP  RH WIND       PRES   REMARKS
MILWAUKEE      LGT RAIN  60  59  96 SE3       30.06F FOG
MADISON        DRIZZLE   62  61  96 E6        30.02R FOG
GREEN BAY      CLOUDY    61  59  93 E6        30.08S FOG
EAU CLAIRE     CLOUDY    57  55  93 E5        30.07S
BLACK RVR FLS  CLOUDY    60  60 100 E3        30.05S
MEDFORD        CLOUDY    56  55  99 SE3       30.07F FOG
WAUSAU         CLOUDY    59  56  89 CALM      30.07F
WIS RAPIDS     CLOUDY    60  57  89 NE6       30.08R
MARSHFIELD     CLOUDY    60  56  86 E7        30.08S FOG
RICE LAKE      CLOUDY    56  55  94 SE6       30.07F
$$

...NORTHEAST IOWA...


CITY           SKY/WX    TMP DP  RH WIND       PRES   REMARKS
DECORAH        FOG       59  59 100 N8G14     30.02S VSB 1/2
MASON CITY     CLOUDY    60  60 100 N7        30.06R FOG
CHARLES CITY   FOG       61  61 100 NE8       30.03R VSB 1/4
OELWEIN        FOG       63  63 100 N8        30.01R VSB 1/4
$$

...ELSEWHERE IN IOWA...


CITY           SKY/WX    TMP DP  RH WIND       PRES   REMARKS
DES MOINES     CLOUDY    64  61  90 N8        30.00R
IOWA CITY      LGT RAIN  68  67  96 CALM      29.99R FOG
FORT DODGE     CLOUDY    57  55  94 N7        30.05R VSB 1/2
$$

...NORTHERN ILLINOIS...


CITY           SKY/WX    TMP DP  RH WIND       PRES   REMARKS
CHICAGO-OHARE  LGT RAIN  64  62  93 E8        30.05R FOG
CHICAGO-MIDWAY LGT RAIN  66  61  84 E5        30.05R
MOLINE         CLOUDY    69  63  81 SW3       29.97R
ROCKFORD       LGT RAIN  64  61  90 SE6       30.03R FOG
PEORIA         CLOUDY    70  63  78 S9        30.00R
$$

NOTE: "FAIR" INDICATES FEW OR NO CLOUDS BELOW 12,000 FEET WITH NO
SIGNIFICANT WEATHER AND/OR OBSTRUCTIONS TO VISIBILITY. WIND
SPEEDS ARE IN MILES-PER-HOUR.



USA.gov is the U.S. government's official web portal to all federal, state and local government web resources and services.